Location: Unspecified
(0.0000°N, 0.0000°E)
Time: 04:41:32
(UTC+00:00)

Envisat - Pass Details

Date: 18 May 2019
Orbit: 764 x 766 km, 98.2° (Epoch: 22 May)

Event Time Altitude Azimuth Distance (km) Brightness Sun altitude
Rises 19:49:46 0° 197° (SSW) 3,231 6.2 -26.5°
Reaches altitude 10° 19:52:44 10° 215° (SW) 2,302 5.6 -27.2°
Maximum altitude 19:56:09 18° 257° (WSW) 1,786 5.4 -28.0°
Drops below altitude 10° 19:59:35 10° 301° (WNW) 2,294 6.4 -28.8°
Sets 20:02:33 0° 319° (NW) 3,217 7.2 -29.5°
